{"data":{"norad_id":28420,"epoch":"2026-05-25T03:39:08.725248Z","epoch_age_seconds":72286,"freshness":"FRESH","line1":"1 28420U 04037B   26145.15218432 -.00000078  00000+0 -61816-3 0  9995","line2":"2 28420  82.4860 343.5158 0013286 334.2656  25.7763 12.45322872984685","mean_motion":12.45322872,"eccentricity":0.0013286,"inclination_deg":82.486,"raan_deg":343.5158,"arg_perigee_deg":334.2656,"mean_anomaly_deg":25.7763,"bstar":-0.00061816,"rev_number":98468,"period_min":115.63266301271,"perigee_km":1473.67352605,"apogee_km":1494.565113543,"semimajor_km":7862.2563197965,"source":"CELESTRAK","updated_at":"2026-05-25T13:37:55.061871Z"}}